LA5PPA-1 Mjondalen NO current weather conditions

sailwx.info

Wind from 095 at 3 knots gusting 6

Air temperature 7.8° C
Dewpoint 7.2° C

Last reported at 2020-Sep-23 23:02 UTC.
Time now 2020-Sep-23 23:36 UTC

Location: N 60°34' E 009°15'.
View on Google Maps.

See reports from other nearby stations

  
Tides and Currents Weather Stations Pressure Air Temp Water Temp Dewpoint Dewpoint Depression Visibility Wind Speed Wind Dir Waves Ship Positions
date/time (UTC)wind fromknots sea level pressurealtimeterstation pressurevisibilityair tempwater tempwave heightnotes
2020-Sep-23 23:02 095 3 gusting 6 7.8
2020-Sep-23 22:52 067 6 gusting 10 7.8
2020-Sep-23 22:42 053 1 gusting 10 7.8
2020-Sep-23 22:32 327 0 gusting 7 7.8
2020-Sep-23 22:22 118 2 gusting 6 7.8
2020-Sep-23 22:12 156 2 gusting 10 7.8
2020-Sep-23 22:02 101 3 gusting 10 7.8
2020-Sep-23 21:52 104 0 gusting 6 7.8
2020-Sep-23 21:42 116 1 gusting 3 7.8
2020-Sep-23 21:32 088 7.8
2020-Sep-23 21:22 075 7.8
2020-Sep-23 21:12 102 2 gusting 2 7.8
2020-Sep-23 21:02 042 7.8
2020-Sep-23 20:52 004 7.8
2020-Sep-23 20:42 084 7.8
2020-Sep-23 20:32 344 7.8
2020-Sep-23 20:22 053 7.8
2020-Sep-23 20:12 091 7.8
2020-Sep-23 20:02 075 7.8
2020-Sep-23 19:52 075 7.8
2020-Sep-23 19:42 075 7.8
2020-Sep-23 19:32 075 7.8
2020-Sep-23 19:22 081 7.8
2020-Sep-23 19:12 081 7.8
2020-Sep-23 19:02 081 7.8
2020-Sep-23 18:52 081 8.3
2020-Sep-23 18:42 278 8.3
2020-Sep-23 18:32 278 8.3
2020-Sep-23 18:22 278 8.3
2020-Sep-23 18:12 278 8.9
2020-Sep-23 18:02 278 8.9
2020-Sep-23 17:52 278 8.9
2020-Sep-23 17:42 278 8.9
2020-Sep-23 17:32 278 8.9
2020-Sep-23 17:22 278 9.4
2020-Sep-23 17:12 278 9.4
2020-Sep-23 17:02 278 9.4
2020-Sep-23 16:52 278 9.4
2020-Sep-23 16:42 278 9.4
2020-Sep-23 16:32 278 10.0
2020-Sep-23 16:22 278 10.0
2020-Sep-23 16:12 278 10.0
2020-Sep-23 16:02 278 10.0
2020-Sep-23 15:52 312 1 gusting 3 10.0
2020-Sep-23 15:42 286 10.6
2020-Sep-23 15:32 255 10.6
2020-Sep-23 15:22 315 10.6
2020-Sep-23 15:12 305 10.0
2020-Sep-23 15:02 319 0 gusting 3 10.6
2020-Sep-23 14:52 317 10.6
2020-Sep-23 14:42 317 10.6
2020-Sep-23 14:32 317 10.6
2020-Sep-23 14:22 299 0 gusting 3 10.6
2020-Sep-23 14:12 310 10.6
2020-Sep-23 14:02 345 11.1
2020-Sep-23 13:52 323 11.1
2020-Sep-23 13:42 323 11.1
2020-Sep-23 13:32 323 11.1
2020-Sep-23 13:22 309 0 gusting 2 11.1
2020-Sep-23 13:12 305 11.1
2020-Sep-23 13:02 310 5 gusting 7 12.2
2020-Sep-23 12:52 012 1 gusting 6 12.2
2020-Sep-23 12:42 305 4 gusting 5 12.2
2020-Sep-23 12:32 303 0 gusting 6 12.8
2020-Sep-23 12:22 309 12.8
2020-Sep-23 12:12 305 4 gusting 6 12.8
2020-Sep-23 12:02 113 1 gusting 5 12.8
2020-Sep-23 11:52 108 0 gusting 5 12.8
2020-Sep-23 11:42 315 12.8
2020-Sep-23 11:32 315 12.2
2020-Sep-23 11:22 315 12.2
2020-Sep-23 11:12 315 12.2
2020-Sep-23 11:02 315 12.2
2020-Sep-23 10:52 315 12.2
2020-Sep-23 10:42 315 11.7
2020-Sep-23 10:32 315 11.7
2020-Sep-23 10:22 315 11.1
2020-Sep-23 10:12 315 11.1
2020-Sep-23 10:02 315 11.1
2020-Sep-23 09:52 315 11.1
2020-Sep-23 09:42 315 10.6
2020-Sep-23 09:32 315 10.6
2020-Sep-23 09:22 315 10.6
2020-Sep-23 09:12 315 10.6
2020-Sep-23 09:02 315 10.6
2020-Sep-23 08:52 315 10.6
2020-Sep-23 08:42 315 10.0
2020-Sep-23 08:32 315 10.0
2020-Sep-23 08:22 315 10.0
2020-Sep-23 08:12 315 10.0
2020-Sep-23 08:02 315 10.0
2020-Sep-23 07:52 315 10.0
2020-Sep-23 07:42 315 10.0
2020-Sep-23 07:32 315 10.0
2020-Sep-23 07:22 315 10.0
2020-Sep-23 07:12 315 10.0
2020-Sep-23 07:02 315 9.4
2020-Sep-23 06:52 315 9.4
2020-Sep-23 06:42 315 9.4
2020-Sep-23 06:32 315 9.4
2020-Sep-23 06:22 330 2 gusting 7 9.4
2020-Sep-23 06:12 150 0 gusting 3 9.4
2020-Sep-23 06:02 344 3 gusting 6 8.9
2020-Sep-23 05:52 156 5 gusting 9 8.9
2020-Sep-23 05:42 343 0 gusting 7 8.9
2020-Sep-23 05:32 015 0 gusting 6 8.9
2020-Sep-23 05:22 324 1 gusting 5 8.9
2020-Sep-23 05:12 316 1 gusting 4 8.9
2020-Sep-23 05:02 123 1 gusting 6 8.3
2020-Sep-23 04:52 265 6 gusting 8 8.3
2020-Sep-23 04:42 345 0 gusting 6 8.3
2020-Sep-23 04:32 028 2 gusting 9 8.3
2020-Sep-23 04:22 327 2 gusting 9 8.3
2020-Sep-23 04:12 322 2 gusting 7 8.3
2020-Sep-23 04:02 316 2 gusting 9 8.3
2020-Sep-23 03:52 347 1 gusting 6 8.3
2020-Sep-23 03:42 358 2 gusting 6 8.3
2020-Sep-23 03:32 358 6 gusting 6 8.3
2020-Sep-23 03:22 316 1 gusting 6 8.3
2020-Sep-23 03:12 315 1 gusting 6 8.3
2020-Sep-23 03:02 340 3 gusting 6 8.3
2020-Sep-23 02:52 341 0 gusting 6 8.3
2020-Sep-23 02:42 014 1 gusting 8 8.9
2020-Sep-23 02:32 026 1 gusting 7 8.3
2020-Sep-23 02:22 348 8.3
2020-Sep-23 02:12 264 0 gusting 6 8.3
2020-Sep-23 02:02 022 0 gusting 4 8.3
2020-Sep-23 01:52 019 2 gusting 6 8.3
2020-Sep-23 01:42 344 1 gusting 6 8.3
2020-Sep-23 01:32 330 4 gusting 8 8.3
2020-Sep-23 01:22 343 1 gusting 6 8.3
2020-Sep-23 01:12 330 1 gusting 6 7.8
2020-Sep-23 01:02 288 0 gusting 3 7.8
2020-Sep-23 00:52 035 0 gusting 7 7.8
2020-Sep-23 00:42 289 7.8
2020-Sep-23 00:32 087 0 gusting 2 7.8
2020-Sep-23 00:22 212 4 gusting 4 7.8
2020-Sep-23 00:12 246 4 gusting 4 7.8
2020-Sep-23 00:02 226 1 gusting 7 7.8
2020-Sep-22 23:52 196 5 gusting 8 7.8
2020-Sep-22 23:42 182 7.8
2020-Sep-22 23:32 164 1 gusting 3 7.8
2020-Sep-22 23:22 097 0 gusting 4 7.8
2020-Sep-22 23:12 157 1 gusting 4 7.8
2020-Sep-22 23:02 119 7.8
2020-Sep-22 22:52 119 7.8
2020-Sep-22 22:42 119 7.8
2020-Sep-22 22:32 208 7.2
2020-Sep-22 22:22 102 0 gusting 4 7.2
2020-Sep-22 22:12 102 1 gusting 5 7.2
2020-Sep-22 22:02 081 7.8
2020-Sep-22 21:52 137 1 gusting 4 7.8
2020-Sep-22 21:42 115 0 gusting 4 7.8
2020-Sep-22 21:32 170 0 gusting 6 7.8
2020-Sep-22 21:22 180 7.2
2020-Sep-22 21:12 045 7.2
2020-Sep-22 21:02 112 7.2
2020-Sep-22 20:52 122 0 gusting 6 7.2
2020-Sep-22 20:42 157 1 gusting 6 7.2
2020-Sep-22 20:32 293 6.7
2020-Sep-22 20:22 181 0 gusting 5 6.7
2020-Sep-22 20:12 216 0 gusting 3 6.7
2020-Sep-22 20:02 170 6.7
2020-Sep-22 19:52 153 1 gusting 2 6.7
2020-Sep-22 19:42 118 0 gusting 3 6.7
2020-Sep-22 19:32 223 0 gusting 4 6.7
2020-Sep-22 19:22 144 1 gusting 4 6.7
2020-Sep-22 19:12 184 2 gusting 2 6.7
2020-Sep-22 19:02 255 0 gusting 3 6.7
2020-Sep-22 18:52 271 7.2
2020-Sep-22 18:42 338 7.2
2020-Sep-22 18:32 133 0 gusting 2 7.2
2020-Sep-22 18:22 178 7.8
2020-Sep-22 18:12 192 1 gusting 3 7.8
2020-Sep-22 18:02 150 8.3
2020-Sep-22 17:52 341 8.3
2020-Sep-22 17:42 108 8.3
2020-Sep-22 17:32 319 8.9
2020-Sep-22 17:22 312 0 gusting 4 8.9
2020-Sep-22 17:12 178 8.9
2020-Sep-22 17:02 358 9.4
2020-Sep-22 16:52 206 9.4
2020-Sep-22 16:42 344 0 gusting 4 10.0
2020-Sep-22 16:32 075 10.0
2020-Sep-22 16:22 320 10.6
2020-Sep-22 16:12 316 10.6
2020-Sep-22 16:02 330 0 gusting 4 11.1
2020-Sep-22 15:52 299 11.1
2020-Sep-22 15:42 209 11.1
2020-Sep-22 15:32 198 2 gusting 6 11.7
2020-Sep-22 15:22 177 2 gusting 9 11.7
2020-Sep-22 15:12 240 12.2
2020-Sep-22 15:02 282 1 gusting 2 12.2
2020-Sep-22 14:52 298 0 gusting 8 12.8
2020-Sep-22 14:42 286 2 gusting 4 12.8
2020-Sep-22 14:32 001 12.8
2020-Sep-22 14:22 168 4 gusting 7 12.8
2020-Sep-22 14:12 177 12.8
2020-Sep-22 14:02 220 1 gusting 6 12.8
2020-Sep-22 13:52 303 12.8
2020-Sep-22 13:42 171 2 gusting 10 12.8
2020-Sep-22 13:32 334 1 gusting 6 12.8
2020-Sep-22 13:22 018 0 gusting 5 12.8
2020-Sep-22 13:12 161 2 gusting 7 12.2
2020-Sep-22 13:02 106 2 gusting 2 12.2
2020-Sep-22 12:52 306 0 gusting 7 12.2
2020-Sep-22 12:42 337 12.2
2020-Sep-22 12:32 258 12.2
2020-Sep-22 12:22 293 3 gusting 4 12.2
2020-Sep-22 12:12 206 1 gusting 6 12.2
2020-Sep-22 12:02 334 12.2
2020-Sep-22 11:52 310 1 gusting 4 12.2
2020-Sep-22 11:42 222 11.7
2020-Sep-22 11:32 323 11.7
2020-Sep-22 11:22 123 11.7
2020-Sep-22 11:12 317 2 gusting 5 11.7
2020-Sep-22 11:02 343 11.7
2020-Sep-22 10:52 104 1 gusting 2 11.1
2020-Sep-22 10:42 309 11.1
2020-Sep-22 10:32 180 10.6
2020-Sep-22 10:22 229 10.0
2020-Sep-22 10:12 205 10.0
2020-Sep-22 10:02 292 9.4
2020-Sep-22 09:52 165 8.9
2020-Sep-22 09:42 320 8.9
2020-Sep-22 09:32 309 8.9
2020-Sep-22 09:22 309 8.3
2020-Sep-22 09:12 309 8.3
2020-Sep-22 09:02 309 7.8
2020-Sep-22 08:52 320 7.8
2020-Sep-22 08:42 320 7.8
2020-Sep-22 08:32 320 7.8
2020-Sep-22 08:22 320 7.8
2020-Sep-22 08:12 320 7.2
2020-Sep-22 08:02 296 7.2
2020-Sep-22 07:52 350 7.2
2020-Sep-22 07:42 313 7.2
2020-Sep-22 07:32 327 1 gusting 5 7.2
2020-Sep-22 07:22 326 1 gusting 1 7.2
2020-Sep-22 07:12 327 6.7
2020-Sep-22 07:02 313 0 gusting 3 6.7
2020-Sep-22 06:52 310 3 gusting 6 6.7
2020-Sep-22 06:42 302 0 gusting 5 6.7
2020-Sep-22 06:32 336 3 gusting 6 6.1
2020-Sep-22 06:22 312 0 gusting 4 6.1
2020-Sep-22 06:12 310 0 gusting 5 6.1
2020-Sep-22 06:02 320 0 gusting 2 6.1
2020-Sep-22 05:52 338 2 gusting 5 6.1
2020-Sep-22 05:42 338 6.1
2020-Sep-22 05:32 329 6 gusting 6 6.1
2020-Sep-22 05:22 316 2 gusting 6 6.1
2020-Sep-22 05:12 327 1 gusting 3 6.1
2020-Sep-22 05:02 326 0 gusting 2 6.1
2020-Sep-22 04:52 322 2 gusting 6 6.1
2020-Sep-22 04:42 334 2 gusting 6 6.1
2020-Sep-22 04:32 338 6.1
2020-Sep-22 04:22 302 6.1
2020-Sep-22 04:12 343 0 gusting 2 6.1
2020-Sep-22 04:02 343 6.1
2020-Sep-22 03:52 333 1 gusting 7 6.1
2020-Sep-22 03:42 319 2 gusting 8 6.1
2020-Sep-22 03:32 320 3 gusting 6 6.1
2020-Sep-22 03:22 331 2 gusting 6 6.1
2020-Sep-22 03:12 327 6.1
2020-Sep-22 03:02 336 0 gusting 5 6.1
2020-Sep-22 02:42 333 0 gusting 6 6.1
2020-Sep-22 02:32 322 3 gusting 7 6.1
2020-Sep-22 02:12 333 6 gusting 8 6.1
2020-Sep-22 02:02 334 0 gusting 6 6.1
2020-Sep-22 01:52 351 0 gusting 9 6.1
2020-Sep-22 01:42 334 3 gusting 10 6.1
2020-Sep-22 01:32 327 0 gusting 11 6.1
2020-Sep-22 01:22 312 4 gusting 7 6.1
2020-Sep-22 01:12 309 1 gusting 9 6.7
2020-Sep-22 01:02 303 2 gusting 6 6.7
2020-Sep-22 00:52 316 3 gusting 12 6.7
2020-Sep-22 00:42 300 6.7
2020-Sep-22 00:32 288 4 gusting 7 6.7
2020-Sep-22 00:22 324 2 gusting 7 6.1
2020-Sep-22 00:12 310 5 gusting 8 6.1
2020-Sep-22 00:02 320 2 gusting 13 6.7
2020-Sep-21 23:52 312 1 gusting 9 6.7
2020-Sep-21 23:42 315 4 gusting 11 6.7
2020-Sep-21 23:32 298 5 gusting 7 6.7
2020-Sep-21 23:22 336 5 gusting 6 6.7
2020-Sep-21 23:12 331 5 gusting 6 6.7
2020-Sep-21 23:02 329 3 gusting 7 6.7